[[{"header":{"parameterUnit":"m.s-1","parameterCategory":1,"la1":30.2991,"la2":30.254,"lo1":-89.0895,"lo2":-89.0444,"dy":0.0017,"dx":0.0017,"nx":28,"ny":28,"refTime":"2023-09-22T09:00:00:Z","depth":0,"parameterNumber":2,"parameterNumberName":"U-component_of_WINDS"},"data":[0,0,0,0,0,0,0,0,0,0,0,0,0,0,0,0,0,0,0,0,0,0,0,0,0,0,0,0,0,0,0,0,0,0,0,0,0,0,0,0,0,0,0,0,0,0,0,0,0,0,0,0,0,0,0,0,0,0,-3.1837,-3.1837,0,-3.1842,-3.1842,-3.1842,-3.1747,-3.1745,-3.1742,-3.174,-3.1746,-3.1749,-3.1751,0,0,0,0,0,0,0,0,0,0,0,0,0,-3.175,-3.1752,-3.1837,-3.1837,-3.1837,-3.1842,-3.1842,-3.1842,-3.1748,-3.1745,-3.1742,-3.1739,-3.1745,-3.1748,-3.1751,0,0,0,0,0,0,0,0,0,0,0,0,0,-3.1775,-3.1753,-3.1837,-3.1791,-3.1787,-3.1842,-3.1842,-3.1842,-3.1748,-3.1745,-3.1741,-3.1737,-3.1744,-3.1748,-3.1752,-3.1852,0,0,-3.1763,-3.1765,0,0,0,0,0,0,0,0,-3.1774,-3.1778,-3.1797,-3.1794,-3.1789,-3.179,-3.1813,-3.1845,-3.1749,-3.1763,-3.174,-3.1735,-3.1764,-3.1766,-3.1775,-3.1852,-3.1852,-3.1764,-3.1766,-3.1768,-3.1769,0,0,0,0,0,0,0,-3.1772,-3.1777,-3.1839,-3.1798,-3.1793,-3.1771,-3.177,-3.1819,-3.1785,-3.1761,-3.1755,-3.1756,-3.1761,-3.1772,-3.1775,-3.1852,-3.1764,-3.1767,-3.1769,-3.1771,-3.2015,-3.2019,0,0,0,0,0,0,-3.1776,-3.1777,-3.1839,-3.1839,-3.1772,-3.1776,-3.1775,-3.1794,-3.1784,-3.1779,-3.176,-3.1752,-3.1767,-3.177,-3.1775,-3.1892,-3.1768,-3.1771,-3.1774,-3.201,-3.2015,-3.202,0,0,0,0,0,0,-3.1775,-3.1783,-3.1838,-3.1806,-3.1811,-3.1781,-3.1803,-3.1796,-3.1806,-3.1783,-3.1776,-3.1777,-3.1764,-3.1769,-3.1834,-3.1891,-3.1773,-3.1777,-3.2006,-3.2012,-3.2018,-3.2128,0,0,0,0,0,0,-3.1773,-3.1783,-3.1819,-3.1807,-3.1813,-3.1897,-3.1807,-3.1799,-3.1813,-3.1803,-3.1797,-3.1792,-3.1762,-3.1829,-3.1838,-3.1894,-3.1779,-3.2,-3.2008,-3.2016,-3.2119,-3.2137,-3.2153,0,0,0,0,0,-3.177,-3.185,-3.1822,-3.183,-3.1858,-3.19,-3.1904,-3.1866,-3.1818,-3.1855,-3.1841,-3.1792,-3.1884,-3.1836,-3.1845,-3.1904,-3.1996,-3.2006,-3.2015,-3.2111,-3.2134,-3.2152,0,0,0,0,0,0,-3.1869,-3.1847,-3.1816,-3.1894,-3.19,-3.1884,-3.193,-3.1891,-3.191,-3.19,-3.1854,-3.1853,-3.1926,-3.1921,-3.1869,-3.2002,-3.1932,-3.1943,-3.2002,-3.2023,-3.2039,-3.2038,-3.1783,0,0,0,0,0,-3.19,-3.1935,-3.1914,-3.1986,-3.199,-3.196,-3.1977,-3.1948,-3.1952,-3.1954,-3.1944,-3.195,-3.1981,-3.2001,-3.2028,-3.2119,-3.2117,-3.2164,-3.2181,-3.2195,-3.2205,-3.2255,-3.2276,-3.2051,-3.2051,-3.2051,0,0,-3.1964,-3.1957,-3.1982,-3.2006,-3.2006,-3.2045,-3.1963,-3.2006,-3.2035,-3.1961,-3.2021,-3.2015,-3.2019,-3.2098,-3.2132,-3.2096,-3.2267,-3.2207,-3.2218,-3.2221,-3.2267,-3.2288,-3.2307,-3.2057,-3.2056,-3.2055,0,0,-3.2101,-3.2099,-3.2158,-3.2162,-3.2164,-3.2144,-3.2159,-3.215,-3.2143,-3.2203,-3.2149,-3.2183,-3.2236,-3.2242,-3.2252,-3.2395,-3.2352,-3.2405,-3.2493,-3.2542,-3.2559,-3.2575,-3.2627,-3.2646,-3.2416,-3.2416,-3.2416,0,-3.218,-3.2235,-3.2194,-3.2242,-3.2255,-3.2191,-3.2252,-3.2257,-3.2269,-3.228,-3.224,-3.2307,-3.2305,-3.2385,-3.2421,-3.243,-3.2447,-3.2405,-3.256,-3.2575,-3.2589,-3.2638,-3.2658,-3.2422,-3.2422,-3.2421,-3.242,0,-3.2334,-3.2373,-3.2421,-3.2434,-3.2453,-3.2507,-3.2476,-3.25,-3.2471,-3.2456,-3.2519,-3.2516,-3.2541,-3.2558,-3.253,-3.2636,-3.2614,-3.2568,-3.2496,-3.2618,-3.2663,-3.2681,-3.2432,-3.2429,-3.2427,-3.2426,0,0,-3.253,-3.2522,-3.2541,-3.2547,-3.2547,-3.2577,-3.263,-3.2655,-3.2677,-3.2688,-3.2732,-3.278,-3.2739,-3.275,-3.2722,-3.2765,-3.2881,-3.2714,-3.2714,-3.2746,-3.2999,-3.3033,-3.3056,-3.2853,-3.2856,-3.2859,-3.2999,0,-3.2663,-3.2752,-3.2718,-3.281,-3.2847,-3.2788,-3.2834,-3.284,-3.2829,-3.2859,-3.2846,-3.2881,-3.2823,-3.283,-3.287,-3.2858,-3.2931,-3.2848,-3.2894,-3.2897,-3.2895,-3.3079,-3.3115,-3.3247,-3.3016,-3.3019,-3.3021,0,-3.283,-3.2848,-3.2944,-3.294,-3.2954,-3.2996,-3.3018,-3.3047,-3.3054,-3.3043,-3.3058,-3.3021,-3.3074,-3.3004,-3.3078,-3.3022,-3.304,-3.3038,-3.3042,-3.3044,-3.2966,-3.3087,-3.3288,-3.3308,-3.3049,-3.3047,-3.3045,0,-3.2965,-3.3014,-3.3078,-3.3085,-3.3081,-3.3113,-3.3113,-3.3116,-3.3134,-3.3154,-3.3165,-3.3191,-3.3205,-3.3227,-3.3199,-3.315,-3.3278,-3.3205,-3.3271,-3.3272,-3.3299,-3.3298,-3.3506,-3.3312,-3.3311,-3.3311,-3.3311,0,-3.3116,-3.3177,-3.3138,-3.3178,-3.3245,-3.3207,-3.3275,-3.3269,-3.3273,-3.3311,-3.3263,-3.33,-3.3261,-3.3296,-3.3275,-3.334,-3.3347,-3.334,-3.3333,-3.3344,-3.3345,-3.3354,-3.3344,-3.3316,-3.3315,-3.3314,-3.3313,0,-3.3278,-3.3254,-3.332,-3.3312,-3.3312,-3.3362,-3.3356,-3.3393,-3.3379,-3.3428,-3.3438,-3.3416,-3.3454,-3.3429,-3.3467,-3.3453,-3.3539,-3.352,-3.3537,-3.3531,-3.3599,-3.3593,-3.382,-3.3849,-3.3636,-3.3638,-3.364,0,-3.3376,-3.3421,-3.3419,-3.3441,-3.3445,-3.3481,-3.35,-3.3465,-3.3487,-3.35,-3.3536,-3.357,-3.3595,-3.366,-3.3648,-3.3678,-3.3659,-3.3737,-3.3663,-3.3673,-3.3661,-3.3659,-3.3664,-3.3752,-3.3754,-3.3756,-3.3758,0,-3.3553,-3.354,-3.3568,-3.3593,-3.3617,-3.3636,-3.365,-3.3671,-3.3637,-3.3665,-3.3703,-3.3723,-3.3763,-3.3798,-3.3824,-3.3825,-3.3787,-3.3782,-3.3798,-3.3809,-3.3817,-3.3814,-3.3577,-3.3776,-3.3774,-3.3773,-3.3772,-3.3771,-3.3685,-3.3724,-3.3729,-3.3763,-3.3771,-3.3787,-3.3821,-3.3813,-3.3844,-3.3873,-3.3852,-3.3898,-3.3907,-3.3937,-3.3944,-3.3981,-3.395,-3.3974,-3.398,-3.3987,-3.3996,-3.3812,-3.3986,-3.3985,-3.3985,-3.3984,-3.3984,0,-3.386,-3.3861,-3.3893,-3.3916,-3.3943,-3.3905,-3.392,-3.3946,-3.3987,-3.3998,-3.4025,-3.4071,-3.4105,-3.4098,-3.4129,-3.4161,-3.4144,-3.417,-3.4167,-3.4169,-3.4022,-3.4005,-3.4183,-3.4183,-3.4183,-3.4183,-3.4183,-3.4183,-3.3954,-3.4018,-3.4006,-3.4075,-3.4075,-3.412,-3.4132,-3.4147,-3.4156,-3.4209,-3.4238,-3.4233,-3.4237,-3.4269,-3.43,-3.4297,-3.4311,-3.4344,-3.4335,-3.4198,-3.4179,-3.416,-3.4143,-3.4348,-3.4348,-3.4478,-3.4479,-3.448]},{"header":{"parameterUnit":"m.s-1","parameterCategory":1,"la1":30.2991,"la2":30.254,"lo1":-89.0895,"lo2":-89.0444,"dy":0.0017,"dx":0.0017,"nx":28,"ny":28,"refTime":"2023-09-22T09:00:00:Z","depth":0,"parameterNumber":3,"parameterNumberName":"V-component_of_WINDS"},"data":[0,0,0,0,0,0,0,0,0,0,0,0,0,0,0,0,0,0,0,0,0,0,0,0,0,0,0,0,0,0,0,0,0,0,0,0,0,0,0,0,0,0,0,0,0,0,0,0,0,0,0,0,0,0,0,0,0,0,2.1143,2.1143,0,2.109,2.109,2.1089,2.1097,2.1098,2.1099,2.11,2.1036,2.1034,2.1031,0,0,0,0,0,0,0,0,0,0,0,0,0,2.1243,2.1241,2.1143,2.1143,2.1142,2.109,2.109,2.1089,2.1097,2.1098,2.1099,2.11,2.1037,2.1034,2.1031,0,0,0,0,0,0,0,0,0,0,0,0,0,2.1196,2.1241,2.1143,2.114,2.1139,2.1091,2.109,2.1089,2.1097,2.1098,2.11,2.1101,2.1038,2.1034,2.1031,2.0979,0,0,2.1019,2.1017,0,0,0,0,0,0,0,0,2.1198,2.1192,2.1141,2.114,2.1139,2.1102,2.1102,2.1052,2.1096,2.1113,2.11,2.1102,2.1056,2.1051,2.1038,2.0976,2.0973,2.1019,2.1016,2.1015,2.1014,0,0,0,0,0,0,0,2.1202,2.1194,2.1122,2.114,2.1139,2.1138,2.1133,2.1092,2.1077,2.1111,2.1112,2.1106,2.1056,2.1042,2.1036,2.0972,2.1019,2.1015,2.1013,2.1011,2.0864,2.0862,0,0,0,0,0,0,2.1207,2.1197,2.1124,2.112,2.1173,2.1136,2.113,2.1112,2.1078,2.1074,2.1105,2.1107,2.1047,2.1041,2.1034,2.097,2.1015,2.1011,2.1009,2.0865,2.0863,2.0862,0,0,0,0,0,0,2.1209,2.1201,2.1126,2.1159,2.1149,2.1132,2.1113,2.1111,2.1096,2.1073,2.1069,2.1093,2.1048,2.104,2.0993,2.0968,2.1009,2.1006,2.0867,2.0865,2.0862,2.0842,0,0,0,0,0,0,2.1212,2.1201,2.1183,2.1159,2.1148,2.1088,2.1111,2.1109,2.1091,2.1092,2.1061,2.1057,2.1049,2.0999,2.0989,2.0963,2.1003,2.0869,2.0866,2.0863,2.0845,2.0839,2.0835,0,0,0,0,0,2.1216,2.1178,2.1183,2.1174,2.1125,2.1087,2.108,2.1074,2.1089,2.1069,2.1054,2.1058,2.0973,2.0994,2.0983,2.0956,2.0871,2.0867,2.0863,2.0847,2.084,2.0835,0,0,0,0,0,0,2.1197,2.1175,2.1179,2.1133,2.1112,2.1088,2.1063,2.1067,2.1039,2.1041,2.1032,2.1025,2.0977,2.0962,2.0986,2.0903,2.0923,2.0917,2.0915,2.0908,2.0903,2.0906,2.1,0,0,0,0,0,2.1189,2.1162,2.1142,2.1103,2.1093,2.108,2.1063,2.106,2.1037,2.1027,2.1008,2.0983,2.095,2.0929,2.0898,2.0844,2.0835,2.0819,2.0814,2.081,2.0804,2.0772,2.0764,2.085,2.085,2.085,0,0,2.1168,2.1153,2.1136,2.1099,2.1083,2.1052,2.1072,2.1039,2.1016,2.1021,2.0976,2.0962,2.0932,2.0882,2.0858,2.0867,2.0779,2.0806,2.0803,2.0798,2.0768,2.076,2.0753,2.0847,2.0848,2.0848,0,0,2.1116,2.1103,2.1069,2.1052,2.1028,2.102,2.1012,2.0988,2.0979,2.0935,2.0938,2.0908,2.0853,2.0832,2.0814,2.0755,2.0756,2.0745,2.0716,2.0686,2.0679,2.0673,2.0649,2.0641,2.0739,2.0739,2.0739,0,2.1093,2.1051,2.105,2.1017,2.0999,2.1006,2.097,2.0953,2.0918,2.0905,2.0917,2.0847,2.0828,2.0772,2.0758,2.0744,2.0731,2.0747,2.0681,2.0674,2.0669,2.0646,2.0637,2.0738,2.0738,2.0738,2.0738,0,2.1023,2.0993,2.0968,2.0937,2.0917,2.0882,2.0873,2.0853,2.0852,2.0842,2.0796,2.0774,2.0738,2.0725,2.0723,2.0667,2.0674,2.0683,2.0703,2.0659,2.0638,2.0629,2.0736,2.0736,2.0737,2.0737,0,0,2.0955,2.0926,2.0916,2.0902,2.0877,2.0852,2.0817,2.0785,2.0766,2.0742,2.071,2.0664,2.0673,2.0653,2.0649,2.0622,2.0574,2.0635,2.0634,2.0622,2.0509,2.05,2.049,2.0576,2.0575,2.0574,2.051,0,2.0898,2.0839,2.0837,2.0782,2.0753,2.076,2.0729,2.0708,2.0698,2.0669,2.0657,2.0624,2.0639,2.0627,2.0601,2.0585,2.0551,2.059,2.0543,2.0541,2.0547,2.0479,2.0469,2.0411,2.0502,2.0501,2.05,0,2.0824,2.0801,2.0743,2.0722,2.0709,2.0682,2.0652,2.0626,2.0602,2.0596,2.0574,2.0574,2.0535,2.0558,2.0502,2.0529,2.051,2.0499,2.0497,2.049,2.0516,2.0467,2.0392,2.0382,2.0487,2.0488,2.0489,0,2.0777,2.0732,2.0691,2.0679,2.0653,2.0633,2.0621,2.0599,2.058,2.0553,2.054,2.0508,2.0489,2.0463,2.0453,2.0472,2.0397,2.042,2.0388,2.0388,2.0369,2.0369,2.0287,2.0361,2.0362,2.0362,2.0362,0,2.0712,2.0676,2.067,2.0644,2.0603,2.0601,2.0559,2.0548,2.0528,2.0498,2.0503,2.0474,2.0464,2.0433,2.0425,2.0379,2.0371,2.0362,2.036,2.036,2.0361,2.0345,2.0348,2.0359,2.036,2.036,2.0361,0,2.0652,2.0646,2.0602,2.0583,2.0577,2.0547,2.0529,2.0503,2.0495,2.0457,2.0447,2.0433,2.0396,2.0385,2.0341,2.0335,2.028,2.0283,2.0289,2.0288,2.0255,2.0257,2.0157,2.0142,2.0229,2.0229,2.0228,0,2.0609,2.0582,2.056,2.0542,2.053,2.0501,2.0482,2.0479,2.0458,2.0429,2.0406,2.0371,2.0343,2.0284,2.0267,2.0233,2.0232,2.02,2.0227,2.0228,2.0228,2.0229,2.0225,2.0193,2.0192,2.0192,2.0191,0,2.0533,2.0533,2.0507,2.048,2.0458,2.0436,2.0414,2.0399,2.0392,2.0368,2.0333,2.0311,2.0268,2.0231,2.0197,2.0181,2.0183,2.0184,2.0174,2.0172,2.0176,2.017,2.0272,2.0185,2.0185,2.0186,2.0186,2.0186,2.0478,2.0454,2.0435,2.0406,2.039,2.037,2.0345,2.0335,2.0306,2.0272,2.0272,2.0233,2.0208,2.0162,2.0145,2.0112,2.0121,2.0108,2.0104,2.01,2.0096,2.0184,2.0106,2.0106,2.0107,2.0107,2.0107,0,2.0401,2.039,2.0363,2.0334,2.0311,2.032,2.0297,2.0275,2.0242,2.0221,2.0194,2.0152,2.0118,2.01,2.0064,2.0042,2.0042,2.0032,2.0032,2.0028,2.0091,2.0102,2.0033,2.0033,2.0033,2.0033,2.0033,2.0033,2.0357,2.0316,2.0313,2.0263,2.0251,2.0216,2.0201,2.0182,2.0165,2.012,2.0092,2.0082,2.0061,2.0025,1.9992,1.9988,1.9973,1.9962,1.9957,2.0016,2.0023,2.003,2.004,1.9959,1.9959,1.9896,1.9896,1.9895]}]]